H1 CPF 2 NER 2024 10 18 9 292 01 glonass138 H2 1805301 9138 43508 2024 10 18 0 0 0 2024 10 21 23 45 0 900 1 1 0 0 0 1 H9 10 0 60601 0.00000 0 -12233723.360 -2650200.902 22224579.111 10 0 60601 900.00000 0 -13406331.774 -5055091.921 21100246.527 10 0 60601 1800.00000 0 -14676353.223 -7222851.732 19565980.445 10 0 60601 2700.00000 0 -15990515.997 -9111290.338 17651472.996 10 0 60601 3600.00000 0 -17290080.765 -10689790.272 15393828.300 10 0 60601 4500.00000 0 -18513322.757 -11940333.870 12836849.379 10 0 60601 5400.00000 0 -19598161.799 -12858004.599 10030191.970 10 0 60601 6300.00000 0 -20484829.403 -13450941.693 7028401.132 10 0 60601 7200.00000 0 -21118460.037 -13739750.306 3889849.177 10 0 60601 8100.00000 0 -21451496.422 -13756392.519 675595.773 10 0 60601 9000.00000 0 -21445806.256 -13542606.689 -2551807.095 10 0 60601 9900.00000 0 -21074419.750 -13147922.815 -5729541.146 10 0 60601 10800.00000 0 -20322813.389 -12627358.950 -8795753.889 10 0 60601 11700.00000 0 -19189684.597 -12038897.360 -11690771.681 10 0 60601 12600.00000 0 -17687183.736 -11440848.532 -14358269.006 10 0 60601 13500.00000 0 -15840593.005 -10889215.772 -16746370.355 10 0 60601 14400.00000 0 -13687465.319 -10435172.919 -18808662.617 10 0 60601 15300.00000 0 -11276259.175 -10122762.581 -20505098.031 10 0 60601 16200.00000 0 -8664526.704 -9986912.603 -21802770.164 10 0 60601 17100.00000 0 -5916730.715 -10051854.612 -22676548.280 10 0 60601 18000.00000 0 -3101781.907 -10330011.207 -23109558.362 10 0 60601 18900.00000 0 -290398.815 -10821398.328 -23093502.268 10 0 60601 19800.00000 0 2447600.004 -11513567.464 -22628809.674 10 0 60601 20700.00000 0 5045959.460 -12382089.636 -21724620.649 10 0 60601 21600.00000 0 7444497.268 -13391560.312 -20398599.914 10 0 60601 22500.00000 0 9591356.017 -14497082.688 -18676586.888 10 0 60601 23400.00000 0 11444905.688 -15646166.765 -16592088.657 10 0 60601 24300.00000 0 12975219.051 -16780964.350 -14185625.877 10 0 60601 25200.00000 0 14165060.207 -17840746.160 -11503944.295 10 0 60601 26100.00000 0 15010346.761 -18764517.022 -8599107.107 10 0 60601 27000.00000 0 15520068.033 -19493659.490 -5527485.634 10 0 60601 27900.00000 0 15715664.355 -19974494.927 -2348667.679 10 0 60601 28800.00000 0 15629894.837 -20160654.529 875695.347 10 0 60601 29700.00000 0 15305242.349 -20015160.692 4083080.384 10 0 60601 30600.00000 0 14791923.616 -19512131.192 7211300.798 10 0 60601 31500.00000 0 14145588.752 -18638034.375 10199707.305 10 0 60601 32400.00000 0 13424807.402 -17392442.251 12990358.745 10 0 60601 33300.00000 0 12688447.399 -15788249.329 15529140.320 10 0 60601 34200.00000 0 11993056.213 -13851347.152 17766808.012 10 0 60601 35100.00000 0 11390355.200 -11619767.135 19659939.422 10 0 60601 36000.00000 0 10924951.853 -9142326.214 21171773.107 10 0 60601 36900.00000 0 10632366.084 -6476830.419 22272920.602 10 0 60601 37800.00000 0 10537453.498 -3687909.663 22941937.692 10 0 60601 38700.00000 0 10653292.089 -844572.286 23165744.071 10 0 60601 39600.00000 0 10980579.587 1982420.472 22939883.202 10 0 60601 40500.00000 0 11507567.472 4723252.339 22268617.032 10 0 60601 41400.00000 0 12210535.351 7311711.336 21164853.154 10 0 60601 42300.00000 0 13054786.848 9687700.906 19649905.015 10 0 60601 43200.00000 0 13996126.240 11799499.106 17753088.818 10 0 60601 44100.00000 0 14982754.766 13605672.186 15511163.912 10 0 60601 45000.00000 0 15957507.544 15076562.956 12967626.489 10 0 60601 45900.00000 0 16860337.352 16195291.865 10171869.524 10 0 60601 46800.00000 0 17630940.592 16958228.953 7178224.628 10 0 60601 47700.00000 0 18211414.262 17374917.021 4044904.303 10 0 60601 48600.00000 0 18548830.974 17467449.536 832865.298 10 0 60601 49500.00000 0 18597622.168 17269329.996 -2395384.302 10 0 60601 50400.00000 0 18321667.500 16823861.594 -5577010.159 10 0 60601 51300.00000 0 17696000.770 16182136.151 -8650084.051 10 0 60601 52200.00000 0 16708058.991 15400708.428 -11554798.417 10 0 60601 53100.00000 0 15358420.721 14539055.354 -14234638.325 10 0 60601 54000.00000 0 13661001.571 13656928.771 -16637487.144 10 0 60601 54900.00000 0 11642697.929 12811714.602 -18716643.774 10 0 60601 55800.00000 0 9342493.429 12055910.801 -20431731.348 10 0 60601 56700.00000 0 6810065.346 11434831.011 -21749479.743 10 0 60601 57600.00000 0 4103949.088 10984630.900 -22644367.130 10 0 60601 58500.00000 0 1289337.365 10730740.119 -23099108.660 10 0 60601 59400.00000 0 -1564394.348 10686765.389 -23104983.614 10 0 60601 60300.00000 0 -4386333.353 10853910.132 -22661995.544 10 0 60601 61200.00000 0 -7106736.670 11220934.222 -21778863.074 10 0 60601 62100.00000 0 -9659687.613 11764654.673 -20472842.283 10 0 60601 63000.00000 0 -11985592.560 12450965.447 -18769384.646 10 0 60601 63900.00000 0 -14033415.312 13236332.867 -16701637.494 10 0 60601 64800.00000 0 -15762557.460 14069703.295 -14309796.886 10 0 60601 65700.00000 0 -17144308.011 14894742.560 -11640325.421 10 0 60601 66600.00000 0 -18162803.368 15652312.805 -8745050.085 10 0 60601 67500.00000 0 -18815459.178 16283082.489 -5680157.492 10 0 60601 68400.00000 0 -19112857.468 16730159.741 -2505105.796 10 0 60601 69300.00000 0 -19078095.179 16941638.256 718525.734 10 0 60601 70200.00000 0 -18745622.543 16872948.563 3928227.351 10 0 60601 71100.00000 0 -18159621.040 16488915.632 7061766.733 10 0 60601 72000.00000 0 -17371989.722 15765436.018 10058390.898 10 0 60601 72900.00000 0 -16440024.977 14690703.656 12859999.064 10 0 60601 73800.00000 0 -15423891.413 13265932.199 15412264.032 10 0 60601 74700.00000 0 -14383990.143 11505542.743 17665680.741 10 0 60601 75600.00000 0 -13378334.839 9436807.997 19576522.143 10 0 60601 76500.00000 0 -12460045.444 7098966.420 21107684.371 10 0 60601 77400.00000 0 -11675064.471 4541841.798 22229405.287 10 0 60601 78300.00000 0 -11060191.416 1824024.170 22919842.864 10 0 60601 79200.00000 0 -10641517.644 -989313.925 23165502.406 10 0 60601 80100.00000 0 -10433327.429 -3828876.702 22961504.290 10 0 60601 81000.00000 0 -10437511.522 -6623879.238 22311686.762 10 0 60601 81900.00000 0 -10643518.338 -9304748.345 21228541.218 10 0 60601 82800.00000 0 -11028845.470 -11805779.048 19732980.437 10 0 60601 83700.00000 0 -11560051.618 -14067636.916 17853943.277 10 0 60601 84600.00000 0 -12194247.128 -16039602.639 15627842.444 10 0 60601 85500.00000 0 -12881001.011 -17681465.403 13097865.054 10 0 60602 0.00000 0 -13564584.401 -18964985.956 10313138.989 10 0 60602 900.00000 0 -14186456.245 -19874868.688 7327779.076 10 0 60602 1800.00000 0 -14687885.021 -20409200.263 4199835.234 10 0 60602 2700.00000 0 -15012596.244 -20579338.688 990158.169 10 0 60602 3600.00000 0 -15109331.841 -20409255.952 -2238791.114 10 0 60602 4500.00000 0 -14934212.251 -19934363.114 -5424165.411 10 0 60602 5400.00000 0 -14452799.842 -19199868.026 -8503963.933 10 0 60602 6300.00000 0 -13641774.985 -18258735.940 -11418248.304 10 0 60602 7200.00000 0 -12490152.614 -17169340.207 -14110317.146 10 0 60602 8100.00000 0 -10999986.765 -15992903.415 -16527815.477 10 0 60602 9000.00000 0 -9186532.457 -14790837.994 -18623756.698 10 0 60602 9900.00000 0 -7077857.391 -13622099.343 -20357436.931 10 0 60602 10800.00000 0 -4713919.273 -12540663.600 -21695223.993 10 0 60602 11700.00000 0 -2145147.057 -11593236.423 -22611206.040 10 0 60602 12600.00000 0 569414.807 -10817289.038 -23087687.883 10 0 60602 13500.00000 0 3364321.916 -10239503.505 -23115526.138 10 0 60602 14400.00000 0 6170213.255 -9874691.678 -22694297.586 10 0 60602 15300.00000 0 8916459.386 -9725232.195 -21832298.251 10 0 60602 16200.00000 0 11533865.963 -9781047.915 -20546373.973 10 0 60602 17100.00000 0 13957321.009 -10020123.613 -18861586.269 10 0 60602 18000.00000 0 16128276.800 -10409541.070 -16810720.330 10 0 60602 18900.00000 0 17996964.315 -10906987.154 -14433644.877 10 0 60602 19800.00000 0 19524249.303 -11462670.766 -11776536.281 10 0 60602 20700.00000 0 20683053.956 -12021567.475 -8890981.936 10 0 60602 21600.00000 0 21459286.226 -12525897.016 -5832980.128 10 0 60602 22500.00000 0 21852239.286 -12917729.136 -2661855.583 10 0 60602 23400.00000 0 21874445.635 -13141607.879 560888.387 10 0 60602 24300.00000 0 21550993.065 -13147083.654 3772759.054 10 0 60602 25200.00000 0 20918332.047 -12891046.293 6911481.884 10 0 60602 26100.00000 0 20022625.247 -12339760.624 9916203.303 10 0 60602 27000.00000 0 18917708.885 -11470518.522 12728665.545 10 0 60602 27900.00000 0 17662751.699 -10272837.382 15294331.129 10 0 60602 28800.00000 0 16319709.734 -8749153.909 17563435.515 10 0 60602 29700.00000 0 14950683.527 -6914983.029 19491948.011 10 0 60602 30600.00000 0 13615288.125 -4798533.959 21042422.802 10 0 60602 31500.00000 0 12368145.748 -2439797.933 22184724.057 10 0 60602 32400.00000 0 11256605.669 110856.070 22896611.457 10 0 60602 33300.00000 0 10318786.419 2794520.911 23164175.010 10 0 60602 34200.00000 0 9582022.022 5545951.416 22982110.728 10 0 60602 35100.00000 0 9061777.247 8296035.272 22353831.521 10 0 60602 36000.00000 0 8761077.388 10974433.513 21291410.665 10 0 60602 36900.00000 0 8670476.743 13512282.026 19815358.098 10 0 60602 37800.00000 0 8768567.495 15844842.641 17954232.961 10 0 60602 38700.00000 0 9023008.029 17913993.999 15744098.797 10 0 60602 39600.00000 0 9392027.825 19670458.554 13227831.028 10 0 60602 40500.00000 0 9826345.733 21075672.711 10454289.232 10 0 60602 41400.00000 0 10271420.745 22103221.643 7477369.732 10 0 60602 42300.00000 0 10669939.858 22739778.375 4354956.657 10 0 60602 43200.00000 0 10964437.237 22985507.472 1147791.997 10 0 60602 44100.00000 0 11099932.868 22853916.292 -2081712.899 10 0 60602 45000.00000 0 11026477.813 22371160.180 -5270700.367 10 0 60602 45900.00000 0 10701496.888 21574831.347 -8357099.225 10 0 60602 46800.00000 0 10091828.182 20512283.127 -11280842.169 10 0 60602 47700.00000 0 9175371.683 19238561.242 -13985042.957 10 0 60602 48600.00000 0 7942276.102 17814030.273 -16417109.531 10 0 60602 49500.00000 0 6395612.659 16301796.421 -18529770.773 10 0 60602 50400.00000 0 4551506.590 14765035.993 -20281996.541 10 0 60602 51300.00000 0 2438720.165 13264342.677 -21639793.128 10 0 60602 52200.00000 0 97704.186 11855205.409 -22576859.044 10 0 60602 53100.00000 0 -2420842.676 10585722.699 -23075088.955 10 0 60602 54000.00000 0 -5057846.800 9494648.794 -23124916.823 10 0 60602 54900.00000 0 -7748087.017 8609852.746 -22725492.418 10 0 60602 55800.00000 0 -10422684.040 7947253.798 -21884688.642 10 0 60602 56700.00000 0 -13011748.812 7510276.313 -20618940.225 10 0 60602 57600.00000 0 -15447080.274 7289845.614 -18952917.501 10 0 60602 58500.00000 0 -17664801.054 7264923.457 -16919041.947 10 0 60602 59400.00000 0 -19607822.370 7403559.309 -14556853.065 10 0 60602 60300.00000 0 -21228036.522 7664412.115 -11912238.878 10 0 60602 61200.00000 0 -22488146.679 7998677.649 -9036544.908 10 0 60602 62100.00000 0 -23363058.747 8352339.624 -5985578.723 10 0 60602 63000.00000 0 -23840778.264 8668649.287 -2818529.177 10 0 60602 63900.00000 0 -23922775.849 8890728.664 403178.841 10 0 60602 64800.00000 0 -23623806.814 8964187.487 3617072.113 10 0 60602 65700.00000 0 -22971193.270 8839643.305 6760836.385 10 0 60602 66600.00000 0 -22003599.408 8475038.326 9773519.981 10 0 60602 67500.00000 0 -20769351.672 7837655.073 12596710.607 10 0 60602 68400.00000 0 -19324374.422 6905745.525 15175662.880 10 0 60602 69300.00000 0 -17729827.559 5669704.567 17460355.017 10 0 60602 70200.00000 0 -16049544.833 4132737.514 19406454.713 10 0 60602 71100.00000 0 -14347379.661 2310992.512 20976175.947 10 0 60602 72000.00000 0 -12684568.996 233150.795 22139010.597 10 0 60602 72900.00000 0 -11117224.903 -2060509.767 22872321.056 10 0 60602 73800.00000 0 -9694058.095 -4519540.633 23161782.627 10 0 60602 74700.00000 0 -8454428.099 -7085180.506 23001667.101 10 0 60602 75600.00000 0 -7426801.142 -9692569.695 22394961.782 10 0 60602 76500.00000 0 -6627680.013 -12273230.500 21353321.119 10 0 60602 77400.00000 0 -6061050.614 -14757711.746 19896851.105 10 0 60602 78300.00000 0 -5718368.425 -17078288.505 18053729.661 10 0 60602 79200.00000 0 -5579085.591 -19171605.228 15859669.316 10 0 60602 80100.00000 0 -5611696.597 -20981152.310 13357231.614 10 0 60602 81000.00000 0 -5775258.600 -22459472.638 10595005.651 10 0 60602 81900.00000 0 -6021322.196 -23570005.501 7626666.103 10 0 60602 82800.00000 0 -6296190.768 -24288490.116 4509928.774 10 0 60602 83700.00000 0 -6543412.274 -24603869.368 1305424.078 10 0 60602 84600.00000 0 -6706397.117 -24518655.382 -1924489.172 10 0 60602 85500.00000 0 -6731050.059 -24048741.301 -5116945.745 10 0 60603 0.00000 0 -6568303.381 -23222667.367 -8209806.663 10 0 60603 900.00000 0 -6176442.393 -22080372.031 -11142879.069 10 0 60603 1800.00000 0 -5523123.661 -20671482.553 -13859094.295 10 0 60603 2700.00000 0 -4586998.973 -19053216.398 -16305625.779 10 0 60603 3600.00000 0 -3358875.380 -17287983.728 -18434920.222 10 0 60603 4500.00000 0 -1842361.378 -15440792.304 -20205623.234 10 0 60603 5400.00000 0 -53971.250 -13576564.612 -21583381.213 10 0 60603 6300.00000 0 1977317.418 -11757480.172 -22541504.192 10 0 60603 7200.00000 0 4211034.912 -10040454.555 -23061477.381 10 0 60603 8100.00000 0 6596678.967 -8474860.260 -23133312.280 10 0 60603 9000.00000 0 9075602.095 -7100584.063 -22755731.388 10 0 60603 9900.00000 0 11583248.247 -5946500.962 -21936183.783 10 0 60603 10800.00000 0 14051646.002 -5029427.060 -20690692.001 10 0 60603 11700.00000 0 16412054.961 -4353593.575 -19043533.735 10 0 60603 12600.00000 0 18597655.739 -3910662.295 -17026764.917 10 0 60603 13500.00000 0 20546172.237 -3680280.130 -14679593.618 10 0 60603 14400.00000 0 22202317.766 -3631147.988 -12047616.920 10 0 60603 15300.00000 0 23519963.826 -3722557.743 -9181935.482 10 0 60603 16200.00000 0 24463941.947 -3906331.617 -6138162.823 10 0 60603 17100.00000 0 25011404.172 -4129081.496 -2975348.322 10 0 60603 18000.00000 0 25152686.090 -4334692.421 245165.325 10 0 60603 18900.00000 0 24891637.029 -4466925.144 3460928.199 10 0 60603 19800.00000 0 24245404.181 -4472027.730 6609589.999 10 0 60603 20700.00000 0 23243680.106 -4301245.806 9630104.351 10 0 60603 21600.00000 0 21927445.445 -3913125.405 12463907.478 10 0 60603 22500.00000 0 20347259.506 -3275510.993 15056048.675 10 0 60603 23400.00000 0 18561170.217 -2367154.066 17356251.006 10 0 60603 24300.00000 0 16632330.543 -1178863.929 19319882.117 10 0 60603 25200.00000 0 14626420.531 285848.688 20908816.846 10 0 60603 26100.00000 0 12608982.111 2010663.442 22092175.338 10 0 60603 27000.00000 0 10642777.194 3966883.717 22846922.781 10 0 60603 27900.00000 0 8785278.611 6114395.142 23158319.386 10 0 60603 28800.00000 0 7086397.867 8403111.138 23020211.883 10 0 60603 29700.00000 0 5586543.928 10774847.133 22435160.681 10 0 60603 30600.00000 0 4315093.542 13165547.123 21414399.696 10 0 60603 31500.00000 0 3289336.704 15507771.326 19977628.883 10 0 60603 32400.00000 0 2513941.101 17733342.544 18152642.522 10 0 60603 33300.00000 0 1980957.868 19776041.691 15974799.433 10 0 60603 34200.00000 0 1670368.352 21574240.366 13486344.378 10 0 60603 35100.00000 0 1551148.762 23073360.480 10735592.928 10 0 60603 36000.00000 0 1582807.669 24228057.628 7775994.986 10 0 60603 36900.00000 0 1717331.104 25004036.099 4665094.872 10 0 60603 37800.00000 0 1901452.414 25379418.608 1463408.315 10 0 60603 38700.00000 0 2079150.004 25345612.497 -1766761.421 10 0 60603 39600.00000 0 2194266.054 24907635.366 -4962544.360 10 0 60603 40500.00000 0 2193133.955 24083886.119 -8061736.822 10 0 60603 41400.00000 0 2027101.745 22905370.991 -11004021.517 10 0 60603 42300.00000 0 1654843.190 21414417.451 -13732149.777 10 0 60603 43200.00000 0 1044357.336 19662930.583 -16193062.007 10 0 60603 44100.00000 0 174570.764 17710265.997 -18338923.838 10 0 60603 45000.00000 0 -963526.131 15620809.383 -20128057.423 10 0 60603 45900.00000 0 -2366257.527 13461364.953 -21525749.753 10 0 60603 46800.00000 0 -4017182.014 11298462.678 -22504922.632 10 0 60603 47700.00000 0 -5887557.657 9195697.231 -23046651.833 10 0 60603 48600.00000 0 -7937333.121 7211209.654 -23140526.171 10 0 60603 49500.00000 0 -10116623.636 5395416.313 -22784840.392 10 0 60603 50400.00000 0 -12367610.377 3789078.939 -21986618.980 10 0 60603 51300.00000 0 -14626784.250 2421794.906 -20761471.174 10 0 60603 52200.00000 0 -16827440.883 1310969.123 -19133280.594 10 0 60603 53100.00000 0 -18902323.224 461308.677 -17133735.880 10 0 60603 54000.00000 0 -20786302.068 -135140.526 -14801711.656 10 0 60603 54900.00000 0 -22418983.371 -498418.442 -12182511.824 10 0 60603 55800.00000 0 -23747134.103 -659562.666 -9326989.800 10 0 60603 56700.00000 0 -24726826.042 -659054.405 -6290562.570 10 0 60603 57600.00000 0 -25325208.505 -544865.145 -3132137.497 10 0 60603 58500.00000 0 -25521836.458 -370187.104 87027.494 10 0 60603 59400.00000 0 -25309498.914 -190943.738 3304508.387 10 0 60603 60300.00000 0 -24694513.317 -63185.689 6457921.453 10 0 60603 61200.00000 0 -23696473.820 -40482.304 9486128.238 10 0 60603 62100.00000 0 -22347464.115 -171418.946 12330416.046 10 0 60603 63000.00000 0 -20690767.666 -497305.864 14935631.315 10 0 60603 63900.00000 0 -18779129.052 -1050195.489 17251244.234 10 0 60603 64800.00000 0 -16672638.689 -1851292.089 19232324.421 10 0 60603 65700.00000 0 -14436328.646 -2909821.421 20840409.246 10 0 60603 66600.00000 0 -12137579.180 -4222408.816 22044248.389 10 0 60603 67500.00000 0 -9843443.314 -5772993.104 22820410.663 10 0 60603 68400.00000 0 -7618000.029 -7533281.501 23153741.546 10 0 60603 69300.00000 0 -5519845.529 -9463728.215 23037662.626 10 0 60603 70200.00000 0 -3599826.249 -11514997.676 22474306.904 10 0 60603 71100.00000 0 -1899107.409 -13629853.162 21474486.867 10 0 60603 72000.00000 0 -447657.114 -15745393.582 20057495.162 10 0 60603 72900.00000 0 736791.119 -17795546.458 18250740.830 10 0 60603 73800.00000 0 1649254.337 -19713713.994 16089227.073 10 0 60603 74700.00000 0 2297473.209 -21435462.162 13614879.686 10 0 60603 75600.00000 0 2701343.569 -22901140.438 10875738.276 10 0 60603 76500.00000 0 2891830.605 -24058322.137 7925025.333 10 0 60603 77400.00000 0 2909411.890 -24863962.329 4820110.934 10 0 60603 78300.00000 0 2802115.611 -25286181.858 1621393.266 10 0 60603 79200.00000 0 2623237.754 -25305601.517 -1608882.819 10 0 60603 80100.00000 0 2428835.962 -24916169.327 -4807845.434 10 0 60603 81000.00000 0 2275107.445 -24125445.405 -7913228.716 10 0 60603 81900.00000 0 2215763.433 -22954331.942 -10864594.179 10 0 60603 82800.00000 0 2299512.825 -21436259.550 -13604515.435 10 0 60603 83700.00000 0 2567762.918 -19615864.352 -16079702.241 10 0 60603 84600.00000 0 3052635.735 -17547211.834 -18242041.309 10 0 60603 85500.00000 0 3775384.759 -15291642.581 -20049533.173 10 0 60604 0.00000 0 4745279.583 -12915331.011 -21467106.799 10 0 60604 900.00000 0 5959006.577 -10486658.457 -22467297.087 10 0 60604 1800.00000 0 7400609.792 -8073513.904 -23030770.858 10 0 60604 2700.00000 0 9041976.513 -5740630.731 -23146694.450 10 0 60604 3600.00000 0 10843846.031 -3547073.220 -22812934.651 10 0 60604 4500.00000 0 12757299.965 -1543975.520 -22036090.780 10 0 60604 5400.00000 0 14725671.882 227373.776 -20831357.872 10 0 60604 6300.00000 0 16686796.634 1737023.196 -19222224.251 10 0 60604 7200.00000 0 18575505.714 2967365.646 -17240009.735 10 0 60604 8100.00000 0 20326264.772 3913621.263 -14923253.634 10 0 60604 9000.00000 0 21875843.556 4583777.623 -12316964.462 10 0 60604 9900.00000 0 23165907.139 4997991.610 -9471745.822 10 0 60604 10800.00000 0 24145420.562 5187479.730 -6442815.267 10 0 60604 11700.00000 0 24772766.769 5192944.857 -3288934.944 10 0 60604 12600.00000 0 25017489.527 5062606.707 -71274.615 10 0 60604 13500.00000 0 24861588.682 4849919.828 3147771.101 10 0 60604 14400.00000 0 24300313.688 4611075.842 6305788.506 10 0 60604 15300.00000 0 23342422.205 4402395.650 9341550.375 10 0 60604 16200.00000 0 22009892.881 4277721.808 12196198.149 10 0 60604 17100.00000 0 20337104.048 4285921.176 14814378.136 10 0 60604 18000.00000 0 18369512.285 4468603.282 17145309.996 10 0 60604 18900.00000 0 16161885.450 4858150.765 19143767.262 10 0 60604 19800.00000 0 13776163.197 5476145.183 20770951.350 10 0 60604 20700.00000 0 11279033.322 6332255.067 21995242.571 10 0 60604 21600.00000 0 8739323.933 7423633.806 22792814.010 10 0 60604 22500.00000 0 6225318.956 8734853.853 23148096.622 10 0 60604 23400.00000 0 3802107.708 10238381.465 23054086.579 10 0 60604 24300.00000 0 1529077.816 11895573.729 22512488.724 10 0 60604 25200.00000 0 -542345.037 13658157.888 21533692.862 10 0 60604 26100.00000 0 -2370617.115 15470132.698 20136582.619 10 0 60604 27000.00000 0 -3925576.881 17270013.783 18348179.636 10 0 60604 27900.00000 0 -5189463.322 18993330.168 16203128.964 10 0 60604 28800.00000 0 -6157410.031 20575268.175 13743034.597 10 0 60604 29700.00000 0 -6837394.642 21953352.189 11015657.140 10 0 60604 30600.00000 0 -7249646.050 23070049.646 8073988.502 10 0 60604 31500.00000 0 -7425534.762 23875190.234 4975221.280 10 0 60604 32400.00000 0 -7405993.745 24328096.708 1779632.910 10 0 60604 33300.00000 0 -7239537.250 24399336.563 -1450593.315 10 0 60604 34200.00000 0 -6979962.399 24072019.684 -4652586.607 10 0 60604 35100.00000 0 -6683832.014 23342586.259 -7764021.704 10 0 60604 36000.00000 0 -6407846.624 22221050.967 -10724341.448 10 0 60604 36900.00000 0 -6206218.348 20730692.604 -13475943.915 10 0 60604 37800.00000 0 -6128159.176 18907201.996 -15965310.040 10 0 60604 38700.00000 0 -6215591.127 16797324.025 -18144049.061 10 0 60604 39600.00000 0 -6501176.079 14457051.079 -19969840.986 10 0 60604 40500.00000 0 -7006749.191 11949443.981 -21407257.732 10 0 60604 41400.00000 0 -7742222.439 9342171.931 -22428447.243 10 0 60604 42300.00000 0 -8705004.681 6704874.509 -23013667.864 10 0 60604 43200.00000 0 -9879962.695 4106455.752 -23151663.361 10 0 60604 44100.00000 0 -11239924.758 1612422.739 -22839872.193 10 0 60604 45000.00000 0 -12746705.559 -717621.176 -22084467.829 10 0 60604 45900.00000 0 -14352609.421 -2832225.225 -20900230.101 10 0 60604 46800.00000 0 -16002348.876 -4689990.005 -19310250.707 10 0 60604 47700.00000 0 -17635298.382 -6261038.739 -17345478.989 10 0 60604 48600.00000 0 -19187989.031 -7528001.576 -15044117.023 10 0 60604 49500.00000 0 -20596740.132 -8486473.800 -12450875.776 10 0 60604 50400.00000 0 -21800317.778 -9144930.688 -9616106.702 10 0 60604 51300.00000 0 -22742509.411 -9524104.385 -6594825.450 10 0 60604 52200.00000 0 -23374506.840 -9655850.504 -3445646.394 10 0 60604 53100.00000 0 -23656998.053 -9581553.398 -229648.483 10 0 60604 54000.00000 0 -23561880.325 -9350138.207 2990805.761 10 0 60604 54900.00000 0 -23073522.825 -9015774.149 6153275.425 10 0 60604 55800.00000 0 -22189525.709 -8635366.314 9196447.289 10 0 60604 56700.00000 0 -20920943.647 -8265941.985 12061319.680 10 0 60604 57600.00000 0 -19291963.995 -7962041.780 14692341.428 10 0 60604 58500.00000 0 -17339052.499 -7773225.624 17038484.137 10 0 60604 59400.00000 0 -15109601.456 -7741798.672 19054227.453 10 0 60604 60300.00000 0 -12660135.842 -7900853.021 20700438.687 10 0 60604 61200.00000 0 -10054151.126 -8272707.924 21945130.213 10 0 60604 62100.00000 0 -7359671.681 -8867814.538 22764080.361 10 0 60604 63000.00000 0 -4646630.129 -9684172.032 23141306.062 10 0 60604 63900.00000 0 -1984175.433 -10707280.586 23069378.119 10 0 60604 64800.00000 0 561979.511 -11910634.552 22549572.839 10 0 60604 65700.00000 0 2932061.538 -13256736.585 21591856.583 10 0 60604 66600.00000 0 5074488.819 -14698591.698 20214702.836 10 0 60604 67500.00000 0 6947777.309 -16181620.085 18444744.399 10 0 60604 68400.00000 0 8522023.081 -17645909.688 16316266.414 10 0 60604 69300.00000 0 9779898.939 -19028714.881 13870549.011 10 0 60604 70200.00000 0 10717123.904 -20267096.805 11155071.431 10 0 60604 71100.00000 0 11342386.141 -21300594.383 8222592.369 10 0 60604 72000.00000 0 11676722.894 -22073813.211 5130124.080 10 0 60604 72900.00000 0 11752384.031 -22538822.466 1937820.224 10 0 60604 73800.00000 0 11611227.798 -22657257.755 -1292200.574 10 0 60604 74700.00000 0 11302717.457 -22402039.973 -4497071.727 10 0 60604 75600.00000 0 10881604.610 -21758636.463 -7614411.616 10 0 60604 76500.00000 0 10405398.519 -20725810.142 -10583547.304 10 0 60604 77400.00000 0 9931729.863 -19315824.164 -13346704.046 10 0 60604 78300.00000 0 9515721.827 -17554092.860 -15850136.433 10 0 60604 79200.00000 0 9207480.930 -15478293.304 -18045178.427 10 0 60604 80100.00000 0 9049814.606 -13136974.772 -19889191.382 10 0 60604 81000.00000 0 9076272.663 -10587724.470 -21346391.541 10 0 60604 81900.00000 0 9309595.582 -7894966.469 -22388541.218 10 0 60604 82800.00000 0 9760635.173 -5127485.961 -22995490.767 10 0 60604 83700.00000 0 10427792.877 -2355782.071 -23155561.582 10 0 60604 84600.00000 0 11296999.014 350640.762 -22865763.578 10 0 60604 85500.00000 0 12342233.494 2925930.650 -22131843.790 99